Home > Weather > Jeddah > Past weeks

Flag for Saudi Arabia Past Weather in Jeddah, Saudi Arabia — Yesterday and Last 2 Weeks

Now
84 °F

Clear.


Feels Like: 90 °F
Forecast: 81 / 93 °F
Wind: 8 mph from Northwest

Location: Jeddah King Abdul Aziz International Airport

Current Time: May 31, 2016 at 9:01:55 PM

Latest Report: May 31, 2016 at 8:00 PM


Visibility: 10 mi

Pressure: 29.74 "Hg

Humidity: 66%

Dew Point: 72 °F

Location of JeddahLocation

Past Weather in Jeddah — Graph

°F

Jeddah Temperature Yesterday

Maximum temperature yesterday: 95 °F (at 11:00 AM)
Minimum temperature yesterday: 81 °F (at 5:00 AM)
Average temperature yesterday: 87 °F

High & Low Weather Summary for the Past Weeks

 TemperatureHumidityPressure
High102 °F (May 17, 10:00 AM)84% (May 23, 7:00 AM)29.80 "Hg (May 23, 7:00 AM)
Low77 °F (May 23, 6:00 AM)22% (May 27, 3:00 PM)29.59 "Hg (May 17, 4:00 PM)
Average88 °F52%29.71 "Hg
* Reported May 16 7:00 PM — May 31 7:00 PM, Jeddah, Weather by CustomWeather, © 2016

Note: Actual official high and low records may vary slightly from our data, if they occured in-between our weather recording intervals... More about our weather records

Advertising

Jeddah Weather History for the Previous 24 Hours

Scroll right to see more
 ConditionsComfort  
Time TempWeatherWind HumidityBarometerVisibility
7:00 PM
Tue, May 31
86 °FSunny.9 mph62%29.74 "Hg10 mi
6:00 PM88 °FSunny.14 mph62%29.71 "Hg10 mi
5:00 PM88 °FSunny.16 mph62%29.71 "Hg10 mi
4:00 PM90 °FSunny.17 mph55%29.71 "Hg10 mi
3:00 PM90 °FSunny.15 mph55%29.71 "Hg10 mi
2:00 PM90 °FSunny.15 mph52%29.74 "Hg10 mi
1:00 PM91 °FSunny.14 mph49%29.74 "Hg10 mi
12:00 PM93 °FSunny.15 mph44%29.74 "Hg10 mi
11:00 AM91 °FSunny.13 mph44%29.77 "Hg10 mi
10:00 AM91 °FSunny.15 mph46%29.77 "Hg10 mi
9:00 AM88 °FSunny.14 mph55%29.77 "Hg10 mi
8:00 AM84 °FSunny.12 mph62%29.77 "Hg10 mi
7:00 AM81 °FSunny.9 mph70%29.74 "Hg10 mi
6:00 AM77 °FSunny.7 mph79%29.74 "Hg10 mi
5:00 AM77 °FClear.7 mph79%29.74 "Hg10 mi
4:00 AM79 °FClear.8 mph74%29.74 "Hg10 mi
3:00 AM79 °FClear.8 mph74%29.74 "Hg10 mi
2:00 AM81 °FClear.10 mph70%29.71 "Hg10 mi
1:00 AM81 °FClear.10 mph70%29.74 "Hg10 mi
12:00 AM82 °FClear.12 mph66%29.74 "Hg10 mi
11:00 PM
Mon, May 30
82 °FClear.12 mph66%29.77 "Hg10 mi
10:00 PM82 °FClear.12 mph58%29.77 "Hg10 mi
9:00 PM84 °FClear.14 mph55%29.77 "Hg10 mi
Weather by CustomWeather, © 2016

See weather overviewHow to use our weather pages